Weather History for Monticello, NY

Change the Weather History Date:

Friday, June 7, 2013

  Actual Average Record
Temperature  
Mean Temperature 54 °F -  
Max Temperature 55 °F 68 °F 89 °F (1999)
Min Temperature 53 °F 49 °F 37 °F (1998)
Degree Days  
Heating Degree Days 11    
Growing Degree Days 4 (Base 50)    
Moisture  
Dew Point 51 °F    
Average Humidity 87    
Maximum Humidity 88    
Minimum Humidity 82    
Precipitation  
Precipitation 0.00 in - - ()
Sea Level Pressure  
Sea Level Pressure 29.89 in    
Wind  
Wind Speed 10 mph (East)    
Max Wind Speed 15 mph    
Max Gust Speed 22 mph    
Visibility 8 miles    
Events      
Averages and records for this station are not official NWS values.
T = Trace of Precipitation, MM = Missing Value Source: NWS Daily Summary

Daily Weather History Graph

Daily Weather History Graph

Search for Another Location

Airport:

Trip Planner

Search our weather history database for the weather conditions in past years. The results will help you decide how hot, cold, wet, or windy it might be!

Date:

Astronomy

Jun. 07, 2013 Rise Set
Actual Time 5:24 AM EDT 8:31 PM EDT
Civil Twilight 4:51 AM EDT 9:05 PM EDT
Nautical Twilight 4:07 AM EDT 9:48 PM EDT
Astronomical Twilight 3:16 AM EDT 10:40 PM EDT
Moon 4:46 AM EDT (6/7) 7:42 PM EDT (6/7)
Length of Visible Light 16h 14m
Length of Day
15h 06m
Waning Crescent, 1% of the Moon is Illuminated
Jun 7
Waning Crescent
Jun 8
New
Jun 16
First Quarter
Jun 23
Full
Jun 30
Last Quarter

Hourly Weather History & Observations

Time (EDT) Temp. Dew Point Humidity Pressure Visibility Wind Dir Wind Speed Gust Speed Precip Events Conditions
12:15 AM 55.4 °F 51.8 °F 88% 30.02 in 10.0 mi SE 11.5 mph 16.1 mph N/A   Overcast
12:35 AM 55.4 °F 50.0 °F 82% 30.01 in 8.0 mi ESE 12.7 mph 16.1 mph N/A   Overcast
12:55 AM 55.4 °F 50.0 °F 82% 30.00 in 6.0 mi ESE 11.5 mph - N/A   Overcast
1:15 AM 55.4 °F 50.0 °F 82% 30.00 in 5.0 mi SSE 10.4 mph - N/A   Overcast
1:35 AM 53.6 °F 50.0 °F 88% 30.00 in 7.0 mi ESE 8.1 mph - N/A   Overcast
1:55 AM 53.6 °F 50.0 °F 88% 29.99 in 8.0 mi ESE 12.7 mph - N/A   Overcast
2:15 AM 55.4 °F 50.0 °F 82% 29.98 in 10.0 mi East 10.4 mph - N/A   Overcast
2:35 AM 55.4 °F 50.0 °F 82% 29.98 in 10.0 mi ESE 8.1 mph - N/A   Overcast
2:55 AM 55.4 °F 50.0 °F 82% 29.98 in 6.0 mi ESE 9.2 mph - N/A   Overcast
3:15 AM 55.4 °F 50.0 °F 82% 29.97 in 10.0 mi East 8.1 mph - N/A   Overcast
3:35 AM 53.6 °F 50.0 °F 88% 29.97 in 10.0 mi ESE 8.1 mph - N/A   Overcast
3:55 AM 53.6 °F 50.0 °F 88% 29.96 in 10.0 mi East 9.2 mph - N/A   Overcast
4:15 AM 53.6 °F 48.2 °F 82% 29.96 in 10.0 mi East 8.1 mph - N/A   Overcast
4:35 AM 53.6 °F 48.2 °F 82% 29.96 in 7.0 mi East 8.1 mph - N/A   Overcast
4:55 AM 53.6 °F 48.2 °F 82% 29.95 in 10.0 mi East 9.2 mph - N/A   Overcast
5:15 AM 53.6 °F 48.2 °F 82% 29.95 in 10.0 mi East 8.1 mph - N/A   Overcast
5:35 AM 53.6 °F 50.0 °F 88% 29.95 in 10.0 mi East 8.1 mph - N/A   Overcast
5:55 AM 53.6 °F 50.0 °F 88% 29.95 in 3.0 mi East 8.1 mph - N/A   Overcast
6:15 AM 53.6 °F 50.0 °F 88% 29.95 in 2.5 mi East 5.8 mph - N/A   Overcast
6:35 AM 53.6 °F 50.0 °F 88% 29.95 in 2.5 mi East 6.9 mph - N/A   Overcast
6:55 AM 53.6 °F 50.0 °F 88% 29.95 in 3.0 mi East 9.2 mph - N/A   Overcast
7:15 AM 53.6 °F 50.0 °F 88% 29.95 in 2.5 mi East 8.1 mph - N/A   Overcast
7:35 AM 55.4 °F 50.0 °F 82% 29.95 in 3.0 mi East 8.1 mph - N/A   Overcast
7:55 AM 55.4 °F 51.8 °F 88% 29.94 in 5.0 mi East 9.2 mph - N/A   Overcast
8:15 AM 55.4 °F 51.8 °F 88% 29.95 in 6.0 mi East 8.1 mph - N/A   Overcast
8:35 AM 55.4 °F 51.8 °F 88% 29.94 in 3.0 mi East 10.4 mph - N/A   Overcast
8:55 AM - - N/A% - 5.0 mi East 10.4 mph - N/A   Overcast
9:15 AM 55.4 °F 51.8 °F 88% 29.94 in 4.0 mi East 10.4 mph - N/A   Overcast
9:35 AM 55.4 °F 51.8 °F 88% 29.94 in 5.0 mi East 12.7 mph - N/A   Overcast
9:55 AM 53.6 °F 50.0 °F 88% 29.94 in 4.0 mi ENE 11.5 mph - N/A   Overcast
10:15 AM 53.6 °F 50.0 °F 88% 29.94 in 4.0 mi East 11.5 mph - N/A   Overcast
10:35 AM 53.6 °F 48.2 °F 82% 29.94 in 5.0 mi East 11.5 mph - N/A   Overcast
10:55 AM 53.6 °F 50.0 °F 88% 29.94 in 2.5 mi East 10.4 mph - N/A   Overcast
11:15 AM 53.6 °F 50.0 °F 88% 29.93 in 4.0 mi East 8.1 mph - N/A   Overcast
11:35 AM 53.6 °F 50.0 °F 88% 29.93 in 10.0 mi East 9.2 mph - N/A   Overcast
11:55 AM 55.4 °F 50.0 °F 82% 29.93 in 10.0 mi East 8.1 mph - N/A   Overcast
12:15 PM 55.4 °F 50.0 °F 82% 29.93 in 7.0 mi East 11.5 mph 16.1 mph N/A   Overcast
12:35 PM 55.4 °F 50.0 °F 82% 29.92 in 10.0 mi East 9.2 mph 16.1 mph N/A   Overcast
12:55 PM 55.4 °F 50.0 °F 82% 29.92 in 10.0 mi East 9.2 mph - N/A   Overcast
1:15 PM 55.4 °F 51.8 °F 88% 29.91 in 8.0 mi East 9.2 mph - N/A   Overcast
1:35 PM 55.4 °F 51.8 °F 88% 29.90 in 10.0 mi East 8.1 mph 16.1 mph N/A   Overcast
1:55 PM 55.4 °F 51.8 °F 88% 29.90 in 9.0 mi East 10.4 mph 18.4 mph N/A   Overcast
2:15 PM 55.4 °F 51.8 °F 88% 29.89 in 7.0 mi East 12.7 mph 18.4 mph N/A   Overcast
2:35 PM 55.4 °F 51.8 °F 88% 29.89 in 7.0 mi East 8.1 mph - N/A   Overcast
2:55 PM 55.4 °F 51.8 °F 88% 29.88 in 10.0 mi East 13.8 mph - N/A   Overcast
3:15 PM 55.4 °F 51.8 °F 88% 29.88 in 10.0 mi East 10.4 mph 17.3 mph N/A   Overcast
3:35 PM 55.4 °F 51.8 °F 88% 29.87 in 9.0 mi East 13.8 mph - N/A   Overcast
3:55 PM 55.4 °F 51.8 °F 88% 29.86 in 10.0 mi East 13.8 mph 21.9 mph N/A   Overcast
4:15 PM 55.4 °F 51.8 °F 88% 29.86 in 10.0 mi East 13.8 mph - N/A   Overcast
4:35 PM 55.4 °F 51.8 °F 88% 29.85 in 8.0 mi East 13.8 mph - N/A   Overcast
4:55 PM 55.4 °F 51.8 °F 88% 29.85 in 8.0 mi East 12.7 mph - N/A   Overcast
5:15 PM 55.4 °F 51.8 °F 88% 29.83 in 9.0 mi East 11.5 mph 19.6 mph N/A   Overcast
5:35 PM 55.4 °F 51.8 °F 88% 29.83 in 10.0 mi East 11.5 mph - N/A   Overcast
5:55 PM 55.4 °F 51.8 °F 88% 29.82 in 10.0 mi East 12.7 mph 19.6 mph N/A   Overcast
6:15 PM 55.4 °F 51.8 °F 88% 29.81 in 10.0 mi East 13.8 mph 19.6 mph N/A   Overcast
6:35 PM 55.4 °F 51.8 °F 88% 29.81 in 10.0 mi East 11.5 mph - N/A   Overcast
6:55 PM 55.4 °F 51.8 °F 88% 29.81 in 10.0 mi East 9.2 mph 18.4 mph N/A   Overcast
7:15 PM 55.4 °F 51.8 °F 88% 29.81 in 10.0 mi ENE 10.4 mph - N/A   Overcast
7:35 PM 55.4 °F 51.8 °F 88% 29.81 in 10.0 mi ENE 9.2 mph 16.1 mph N/A   Overcast
7:55 PM 55.4 °F 51.8 °F 88% 29.81 in 10.0 mi ENE 10.4 mph - N/A   Overcast
8:15 PM 55.4 °F 51.8 °F 88% 29.80 in 9.0 mi ENE 11.5 mph - N/A   Overcast
8:35 PM 55.4 °F 51.8 °F 88% 29.80 in 9.0 mi ENE 10.4 mph - N/A   Overcast
8:55 PM 55.4 °F 51.8 °F 88% 29.79 in 10.0 mi ENE 9.2 mph 18.4 mph N/A   Overcast
9:15 PM 55.4 °F 51.8 °F 88% 29.79 in 10.0 mi ENE 12.7 mph - N/A   Overcast
9:35 PM 55.4 °F 51.8 °F 88% 29.79 in 6.0 mi ENE 9.2 mph 16.1 mph N/A   Overcast
9:55 PM 55.4 °F 51.8 °F 88% 29.77 in 7.0 mi ENE 13.8 mph 18.4 mph N/A   Overcast
10:15 PM 55.4 °F 51.8 °F 88% 29.75 in 10.0 mi ENE 13.8 mph 21.9 mph N/A   Overcast
10:35 PM 55.4 °F 51.8 °F 88% 29.76 in 10.0 mi East 15.0 mph 20.7 mph N/A   Overcast
10:55 PM 55.4 °F 51.8 °F 88% 29.75 in 10.0 mi ENE 12.7 mph 19.6 mph N/A   Overcast
11:15 PM 55.4 °F 51.8 °F 88% 29.74 in 8.0 mi ENE 13.8 mph 18.4 mph N/A   Overcast
11:35 PM 55.4 °F 51.8 °F 88% 29.75 in 10.0 mi East 9.2 mph - N/A   Overcast
11:55 PM 55.4 °F 51.8 °F 88% 29.75 in 10.0 mi ENE 10.4 mph - N/A   Overcast